[[{"header":{"parameterUnit":"m.s-1","parameterCategory":1,"la1":30.2991,"la2":30.254,"lo1":-89.0895,"lo2":-89.0444,"dy":0.0017,"dx":0.0017,"nx":28,"ny":28,"refTime":"2024-05-27T21:00:00:Z","depth":0,"parameterNumber":2,"parameterNumberName":"U-component_of_WINDS"},"data":[0,0,0,0,0,0,0,0,0,0,0,0,0,0,0,0,0,0,0,0,0,0,0,0,0,0,0,0,0,0,0,0,0,0,0,0,0,0,0,0,0,0,0,0,0,0,0,0,0,0,0,0,0,0,0,0,0,0,3.6213,3.6214,0,3.6345,3.6346,3.6348,3.6289,3.6286,3.6282,3.6279,3.6417,3.6423,3.643,0,0,0,0,0,0,0,0,0,0,0,0,0,3.5912,3.5918,3.6213,3.6215,3.6216,3.6344,3.6346,3.6348,3.6289,3.6285,3.6281,3.6278,3.6414,3.6422,3.643,0,0,0,0,0,0,0,0,0,0,0,0,0,3.6043,3.592,3.6213,3.6202,3.6203,3.6344,3.6346,3.6348,3.629,3.6285,3.628,3.6276,3.6412,3.6421,3.6431,3.6591,0,0,3.6462,3.6466,0,0,0,0,0,0,0,0,3.6036,3.6055,3.6202,3.6203,3.6204,3.6295,3.6291,3.643,3.6291,3.6257,3.6279,3.6273,3.638,3.6393,3.6428,3.6598,3.6604,3.6463,3.6469,3.6473,3.6476,0,0,0,0,0,0,0,3.6027,3.6049,3.6265,3.6204,3.6206,3.6192,3.6205,3.6317,3.6345,3.626,3.6256,3.6272,3.638,3.6419,3.6431,3.6606,3.6463,3.6472,3.6478,3.6482,3.6912,3.6917,0,0,0,0,0,0,3.6018,3.6041,3.6261,3.6269,3.6106,3.6201,3.6216,3.6271,3.6343,3.6349,3.6276,3.6269,3.6404,3.6419,3.6436,3.6626,3.6473,3.6483,3.6489,3.6906,3.6913,3.6919,0,0,0,0,0,0,3.6012,3.6038,3.6256,3.6154,3.6181,3.6211,3.6274,3.6276,3.6315,3.6356,3.636,3.631,3.6401,3.6421,3.6552,3.663,3.6487,3.6496,3.69,3.6908,3.6916,3.7009,0,0,0,0,0,0,3.6003,3.6036,3.6097,3.6156,3.6186,3.637,3.6279,3.6282,3.6332,3.6324,3.6389,3.6395,3.6398,3.6538,3.6563,3.6641,3.6504,3.6893,3.6904,3.6913,3.6999,3.7019,3.7037,0,0,0,0,0,3.5993,3.6119,3.61,3.6127,3.6263,3.6375,3.6392,3.6392,3.6338,3.64,3.6426,3.6393,3.6618,3.6552,3.6579,3.6662,3.6888,3.6901,3.6913,3.6991,3.7015,3.7036,0,0,0,0,0,0,3.6068,3.6126,3.6106,3.6255,3.631,3.6364,3.6441,3.6419,3.6491,3.648,3.6479,3.6494,3.6629,3.6659,3.6584,3.682,3.6745,3.6763,3.6795,3.6819,3.6837,3.6826,3.6513,0,0,0,0,0,3.6102,3.6188,3.6234,3.6361,3.6389,3.6411,3.646,3.6455,3.6513,3.6536,3.6572,3.6629,3.6713,3.6768,3.6847,3.7004,3.7017,3.7074,3.7093,3.7108,3.7123,3.7207,3.7233,3.6959,3.6959,3.6958,0,0,3.6173,3.6215,3.6269,3.6377,3.6419,3.6507,3.6431,3.6528,3.6594,3.6551,3.6676,3.6705,3.6769,3.6913,3.6979,3.6942,3.7202,3.7124,3.7136,3.7143,3.7222,3.7248,3.7271,3.6967,3.6965,3.6964,0,0,3.6347,3.6388,3.6497,3.6541,3.6606,3.6619,3.6646,3.6704,3.6721,3.6846,3.6815,3.6894,3.7039,3.7085,3.7128,3.732,3.7292,3.7346,3.7443,3.7525,3.7546,3.7565,3.7632,3.7656,3.7361,3.7362,3.7362,0,3.6427,3.6558,3.6557,3.6656,3.6704,3.6669,3.6779,3.6822,3.691,3.6944,3.6902,3.7081,3.7122,3.7276,3.7323,3.7359,3.7389,3.7337,3.7543,3.7562,3.758,3.7644,3.7669,3.7367,3.7367,3.7366,3.7366,0,3.6653,3.6745,3.6825,3.6909,3.6967,3.7072,3.7086,3.7144,3.7135,3.7153,3.7281,3.7329,3.7417,3.7454,3.7447,3.7607,3.7582,3.7542,3.7466,3.7612,3.7672,3.7696,3.7376,3.7374,3.7372,3.7371,0,0,3.6877,3.6958,3.6988,3.7025,3.7094,3.7165,3.7269,3.7353,3.7403,3.7465,3.7551,3.7674,3.7637,3.7685,3.7683,3.7755,3.7902,3.7706,3.7708,3.7739,3.808,3.8108,3.8136,3.7885,3.789,3.7894,3.8074,0,3.7054,3.7233,3.7234,3.74,3.7484,3.7452,3.7542,3.7594,3.7615,3.7689,3.7712,3.7798,3.7744,3.7773,3.7843,3.7869,3.797,3.7857,3.7964,3.7968,3.7947,3.8168,3.8198,3.8366,3.8098,3.8102,3.8105,0,3.7284,3.7352,3.7526,3.7581,3.7617,3.7697,3.7775,3.7847,3.7906,3.7915,3.797,3.7957,3.8062,3.7985,3.8129,3.8052,3.8097,3.8117,3.8123,3.8131,3.8043,3.818,3.842,3.8444,3.8142,3.8139,3.8136,0,3.7427,3.7563,3.7683,3.7717,3.7786,3.7843,3.7874,3.7928,3.7979,3.8047,3.808,3.8161,3.8204,3.8267,3.8276,3.8219,3.8421,3.8345,3.8431,3.8431,3.8473,3.847,3.8721,3.8506,3.8506,3.8505,3.8505,0,3.7623,3.773,3.7748,3.7822,3.7941,3.7943,3.806,3.8087,3.8136,3.8214,3.8193,3.8268,3.8276,3.8354,3.8362,3.848,3.85,3.8511,3.8511,3.8511,3.851,3.8539,3.8526,3.8512,3.851,3.8509,3.8508,0,3.7802,3.7819,3.7948,3.8003,3.8019,3.8104,3.815,3.8221,3.824,3.834,3.8364,3.8393,3.8482,3.8498,3.8605,3.861,3.875,3.874,3.873,3.8728,3.8812,3.8803,3.9089,3.9126,3.8889,3.8891,3.8893,0,3.7925,3.8006,3.8069,3.812,3.8154,3.8237,3.8288,3.8293,3.8348,3.8421,3.8483,3.857,3.864,3.8785,3.8816,3.8897,3.8888,3.8982,3.89,3.8897,3.8886,3.888,3.8888,3.8997,3.9,3.9002,3.9004,0,3.814,3.8145,3.8219,3.8297,3.8358,3.842,3.8478,3.8521,3.8534,3.8597,3.8687,3.8742,3.885,3.8937,3.9017,3.905,3.9029,3.903,3.9054,3.9053,3.9043,3.9047,3.877,3.9023,3.9021,3.9019,3.9018,3.9018,3.8293,3.8363,3.8418,3.8502,3.8546,3.8601,3.867,3.8697,3.8772,3.886,3.8859,3.8958,3.9015,3.9121,3.916,3.9238,3.9208,3.9243,3.9251,3.9259,3.9266,3.9033,3.9253,3.9253,3.9252,3.9252,3.9251,0,3.8506,3.854,3.8616,3.8698,3.8764,3.8738,3.8802,3.8858,3.8946,3.9,3.9069,3.9174,3.9258,3.9296,3.9379,3.9434,3.9426,3.9456,3.945,3.9458,3.929,3.926,3.946,3.946,3.946,3.946,3.946,3.946,3.8624,3.874,3.8751,3.889,3.8923,3.9019,3.9058,3.9108,3.9151,3.9269,3.9338,3.9362,3.941,3.9496,3.9572,3.9581,3.9612,3.9645,3.965,3.9491,3.947,3.945,3.9421,3.9652,3.9653,3.9811,3.9812,3.9813]},{"header":{"parameterUnit":"m.s-1","parameterCategory":1,"la1":30.2991,"la2":30.254,"lo1":-89.0895,"lo2":-89.0444,"dy":0.0017,"dx":0.0017,"nx":28,"ny":28,"refTime":"2024-05-27T21:00:00:Z","depth":0,"parameterNumber":3,"parameterNumberName":"V-component_of_WINDS"},"data":[0,0,0,0,0,0,0,0,0,0,0,0,0,0,0,0,0,0,0,0,0,0,0,0,0,0,0,0,0,0,0,0,0,0,0,0,0,0,0,0,0,0,0,0,0,0,0,0,0,0,0,0,0,0,0,0,0,0,2.3657,2.3658,0,2.3736,2.3737,2.3738,2.3725,2.3723,2.3722,2.372,2.3803,2.3806,2.381,0,0,0,0,0,0,0,0,0,0,0,0,0,2.3494,2.3497,2.3657,2.3658,2.3659,2.3736,2.3737,2.3738,2.3725,2.3723,2.3721,2.372,2.3802,2.3806,2.381,0,0,0,0,0,0,0,0,0,0,0,0,0,2.3568,2.3498,2.3657,2.3661,2.3663,2.3736,2.3737,2.3739,2.3725,2.3723,2.3721,2.3719,2.38,2.3805,2.3811,2.3885,0,0,2.3827,2.3829,0,0,0,0,0,0,0,0,2.3564,2.3574,2.366,2.3661,2.3663,2.3718,2.371,2.3788,2.3726,2.3701,2.372,2.3718,2.3777,2.3784,2.3803,2.3888,2.3892,2.3827,2.383,2.3832,2.3834,0,0,0,0,0,0,0,2.3559,2.3571,2.3688,2.3661,2.3663,2.366,2.3668,2.3725,2.375,2.3703,2.3703,2.3712,2.3777,2.3798,2.3805,2.3893,2.3827,2.3832,2.3835,2.3837,2.4042,2.4044,0,0,0,0,0,0,2.3552,2.3567,2.3686,2.3691,2.3607,2.3664,2.3674,2.3703,2.3749,2.3754,2.3714,2.3711,2.379,2.3799,2.3808,2.3896,2.3832,2.3837,2.384,2.404,2.4042,2.4045,0,0,0,0,0,0,2.3549,2.3563,2.3683,2.3629,2.3643,2.3669,2.3702,2.3705,2.3726,2.3757,2.3761,2.3731,2.3789,2.38,2.3865,2.3899,2.384,2.3844,2.4037,2.4041,2.4044,2.4075,0,0,0,0,0,0,2.3544,2.3562,2.359,2.3629,2.3646,2.3739,2.3704,2.3708,2.3735,2.3733,2.3774,2.3779,2.3788,2.3857,2.387,2.3905,2.3849,2.4034,2.4039,2.4043,2.4071,2.4079,2.4086,0,0,0,0,0,2.3538,2.3597,2.3592,2.3606,2.3683,2.3741,2.3751,2.376,2.3738,2.3767,2.3786,2.3778,2.3893,2.3864,2.3879,2.3916,2.4032,2.4037,2.4042,2.4068,2.4078,2.4086,0,0,0,0,0,0,2.3562,2.3602,2.3597,2.367,2.3702,2.3738,2.3775,2.377,2.381,2.3806,2.3815,2.3825,2.389,2.391,2.3876,2.3989,2.396,2.3968,2.3974,2.3984,2.3991,2.3985,2.3853,0,0,0,0,0,2.3575,2.3619,2.3652,2.3713,2.3729,2.3749,2.3775,2.3779,2.3813,2.3827,2.3851,2.3885,2.3928,2.3957,2.3999,2.4074,2.4082,2.4106,2.4114,2.412,2.4127,2.4167,2.4177,2.4062,2.4062,2.4062,0,0,2.3604,2.3631,2.3658,2.3718,2.3744,2.3789,2.3761,2.381,2.3844,2.3835,2.3897,2.3916,2.3954,2.4023,2.4055,2.4041,2.4161,2.4127,2.4131,2.4135,2.4173,2.4184,2.4194,2.4066,2.4065,2.4064,0,0,2.3679,2.3704,2.3757,2.3783,2.3821,2.3834,2.3847,2.3884,2.3896,2.3959,2.3952,2.3992,2.4068,2.4095,2.4119,2.4202,2.4195,2.4216,2.4255,2.4293,2.4302,2.4311,2.434,2.435,2.4223,2.4223,2.4223,0,2.3709,2.3777,2.3785,2.3834,2.386,2.3853,2.3907,2.3931,2.3982,2.4,2.3984,2.4078,2.4103,2.4178,2.4198,2.4218,2.4232,2.4211,2.43,2.4309,2.4316,2.4344,2.4355,2.4225,2.4225,2.4224,2.4224,0,2.3812,2.3859,2.3897,2.3945,2.3976,2.4027,2.4042,2.4072,2.4073,2.4088,2.4151,2.4181,2.4228,2.4246,2.4249,2.4322,2.4312,2.4298,2.4268,2.4329,2.4355,2.4366,2.4228,2.4227,2.4227,2.4226,0,0,2.3905,2.3955,2.3969,2.399,2.4032,2.4068,2.4119,2.4165,2.4189,2.4225,2.4267,2.433,2.4317,2.4344,2.4349,2.4383,2.4446,2.4365,2.4366,2.4378,2.4528,2.4537,2.455,2.4442,2.4444,2.4446,2.4524,0,2.3983,2.4071,2.4079,2.4159,2.4202,2.4195,2.4239,2.4269,2.4284,2.4323,2.4339,2.4383,2.4363,2.4379,2.4413,2.4431,2.4476,2.4426,2.4481,2.4483,2.4471,2.4563,2.4574,2.4647,2.4534,2.4536,2.4538,0,2.4086,2.4123,2.4206,2.4241,2.4259,2.4298,2.434,2.4377,2.4411,2.4419,2.4448,2.4449,2.45,2.4469,2.454,2.4505,2.4528,2.4541,2.4544,2.4549,2.4514,2.4571,2.4671,2.4681,2.4554,2.4553,2.4551,0,2.4144,2.4214,2.4273,2.4292,2.4333,2.4361,2.438,2.4411,2.4438,2.4475,2.4492,2.4535,2.4558,2.4591,2.4602,2.4578,2.4672,2.4642,2.468,2.468,2.47,2.4699,2.4805,2.4716,2.4716,2.4716,2.4716,0,2.423,2.4281,2.4299,2.4336,2.4393,2.4401,2.4457,2.4475,2.4503,2.4542,2.4539,2.4576,2.4589,2.4628,2.4638,2.4695,2.4705,2.4713,2.4715,2.4713,2.4712,2.4728,2.4723,2.4719,2.4718,2.4717,2.4717,0,2.4304,2.4318,2.4382,2.4416,2.4425,2.4466,2.4495,2.453,2.4543,2.4593,2.4605,2.4627,2.4673,2.4687,2.4743,2.4749,2.4815,2.4813,2.4803,2.4804,2.4841,2.4837,2.496,2.4977,2.4878,2.4879,2.4879,0,2.4357,2.4397,2.4434,2.446,2.4479,2.4521,2.4548,2.4558,2.4586,2.4626,2.4656,2.4701,2.4738,2.4811,2.4832,2.4874,2.4872,2.4913,2.4879,2.4875,2.4872,2.4869,2.4873,2.4919,2.492,2.4921,2.4922,0,2.4451,2.4456,2.4494,2.4535,2.4567,2.46,2.4631,2.4653,2.4667,2.4698,2.4745,2.4773,2.4829,2.4873,2.4916,2.4936,2.4931,2.4932,2.4943,2.4941,2.4934,2.4938,2.482,2.4929,2.4929,2.4928,2.4928,2.4927,2.4516,2.455,2.4581,2.4624,2.4648,2.4678,2.4712,2.4729,2.4768,2.4813,2.4817,2.4867,2.4899,2.4956,2.4977,2.5016,2.5004,2.5021,2.5025,2.5028,2.5031,2.4928,2.5024,2.5024,2.5024,2.5023,2.5023,0,2.4608,2.4628,2.4667,2.4711,2.4744,2.4736,2.4771,2.4799,2.4843,2.4873,2.4908,2.4961,2.5004,2.5028,2.5071,2.5097,2.5096,2.5108,2.5106,2.511,2.5039,2.5025,2.5108,2.5108,2.5108,2.5108,2.5108,2.5108,2.466,2.4717,2.4726,2.4794,2.4813,2.4862,2.4882,2.4909,2.4932,2.4991,2.5026,2.5041,2.5069,2.5113,2.5152,2.5158,2.5174,2.5187,2.5191,2.5124,2.5115,2.5107,2.5094,2.519,2.519,2.5259,2.526,2.526]}]]